| time (UTC) | temp F | wind direction | speed MPH | gust MPH | rain 1hr in | rain 24hr in | rain mn in | humidity % | barometer mb |
| 20260505102159 | 69 | 146 | 5.0 | 9.0 | 0.00 | 0.00 | 0.00 | 89 | 1006.2 |
| 20260505101659 | 69 | 146 | 1.0 | 4.0 | 0.00 | 0.00 | 0.00 | 89 | 1006.3 |
| 20260505101154 | 69 | 132 | 2.0 | 7.0 | 0.00 | 0.00 | 0.00 | 89 | 1006.3 |
| 20260505100650 | 69 | 125 | 3.0 | 9.0 | 0.00 | 0.00 | 0.00 | 89 | 1006.4 |
| 20260505100148 | 69 | 133 | 2.0 | 7.0 | 0.00 | 0.00 | 0.00 | 89 | 1006.3 |
| 20260505095643 | 69 | 138 | 2.0 | 3.0 | 0.00 | 0.00 | 0.00 | 89 | 1006.4 |
| 20260505095141 | 69 | 129 | 4.0 | 7.0 | 0.00 | 0.00 | 0.00 | 89 | 1006.4 |
| 20260505094637 | 69 | 153 | 4.0 | 8.0 | 0.00 | 0.00 | 0.00 | 89 | 1006.4 |
| 20260505094133 | 69 | 159 | 4.0 | 9.0 | 0.00 | 0.00 | 0.00 | 89 | 1006.6 |
| 20260505093629 | 69 | 132 | 4.0 | 6.0 | 0.00 | 0.00 | 0.00 | 89 | 1006.4 |
| 20260505093127 | 69 | 142 | 4.0 | 7.0 | 0.00 | 0.00 | 0.00 | 89 | 1006.5 |
| 20260505092624 | 69 | 123 | 1.0 | 3.0 | 0.00 | 0.00 | 0.00 | 89 | 1006.6 |
| 20260505092123 | 68 | 117 | 2.0 | 3.0 | 0.00 | 0.00 | 0.00 | 89 | 1006.7 |
| 20260505091619 | 68 | 120 | 3.0 | 7.0 | 0.00 | 0.00 | 0.00 | 89 | 1006.8 |
| 20260505091117 | 68 | 149 | 3.0 | 4.0 | 0.00 | 0.00 | 0.00 | 89 | 1006.7 |
| 20260505090615 | 68 | 154 | 4.0 | 7.0 | 0.00 | 0.00 | 0.00 | 89 | 1006.8 |
| 20260505090113 | 68 | 155 | 3.0 | 7.0 | 0.00 | 0.00 | 0.00 | 90 | 1006.9 |
| 20260505085610 | 68 | 122 | 0.0 | 3.0 | 0.00 | 0.00 | 0.00 | 89 | 1007.1 |
| 20260505085108 | 68 | 100 | 1.0 | 4.0 | 0.00 | 0.00 | 0.00 | 89 | 1007.1 |
| 20260505084606 | 68 | 113 | 1.0 | 3.0 | 0.00 | 0.00 | 0.00 | 89 | 1007.1 |
| 20260505084104 | 68 | 142 | 1.0 | 6.0 | 0.00 | 0.00 | 0.00 | 89 | 1007.2 |
| 20260505083600 | 68 | 131 | 2.0 | 3.0 | 0.00 | 0.00 | 0.00 | 89 | 1007.1 |
| 20260505083057 | 68 | 136 | 0.0 | 8.0 | 0.00 | 0.00 | 0.00 | 89 | 1007.3 |
| 20260505082553 | 68 | 133 | 2.0 | 3.0 | 0.00 | 0.00 | 0.00 | 89 | 1007.2 |
| 20260505082050 | 68 | 136 | 2.0 | 6.0 | 0.00 | 0.00 | 0.00 | 89 | 1007.2 |
| 20260505081546 | 68 | 124 | 3.0 | 4.0 | 0.00 | 0.00 | 0.00 | 88 | 1007.5 |
| 20260505081044 | 68 | 131 | 1.0 | 3.0 | 0.00 | 0.00 | 0.00 | 88 | 1007.4 |
| 20260505080540 | 68 | 114 | 2.0 | 6.0 | 0.00 | 0.00 | 0.00 | 88 | 1007.4 |
| 20260505080037 | 68 | 136 | 1.0 | 8.0 | 0.00 | 0.00 | 0.00 | 88 | 1007.6 |
| 20260505075532 | 68 | 149 | 2.0 | 3.0 | 0.00 | 0.00 | 0.00 | 87 | 1007.7 |
| 20260505075030 | 68 | 155 | 2.0 | 3.0 | 0.00 | 0.00 | 0.00 | 87 | 1007.7 |
| 20260505074527 | 68 | 138 | 1.0 | 2.0 | 0.00 | 0.00 | 0.00 | 87 | 1007.7 |
| 20260505074024 | 68 | 130 | 2.0 | 3.0 | 0.00 | 0.00 | 0.00 | 87 | 1007.8 |
| 20260505073521 | 68 | 132 | 2.0 | 4.0 | 0.00 | 0.00 | 0.00 | 87 | 1007.6 |
| 20260505073020 | 68 | 142 | 2.0 | 4.0 | 0.00 | 0.00 | 0.00 | 87 | 1007.7 |
| 20260505072515 | 68 | 131 | 2.0 | 3.0 | 0.00 | 0.00 | 0.00 | 87 | 1007.9 |
| 20260505072011 | 68 | 141 | 1.0 | 7.0 | 0.00 | 0.00 | 0.00 | 87 | 1007.8 |
| 20260505071507 | 68 | 116 | 2.0 | 4.0 | 0.00 | 0.00 | 0.00 | 87 | 1007.9 |
| 20260505071005 | 68 | 170 | 1.0 | 7.0 | 0.00 | 0.00 | 0.00 | 87 | 1008.1 |
| 20260505070502 | 68 | 126 | 1.0 | 4.0 | 0.00 | 0.00 | 0.00 | 87 | 1008.0 |
| 20260505065957 | 68 | 127 | 3.0 | 4.0 | 0.00 | 0.00 | 0.00 | 87 | 1008.1 |
| 20260505065454 | 68 | 144 | 2.0 | 4.0 | 0.00 | 0.00 | 0.00 | 87 | 1008.1 |
| 20260505064951 | 68 | 137 | 1.0 | 2.0 | 0.00 | 0.00 | 0.00 | 87 | 1008.2 |
| 20260505064447 | 68 | 125 | 1.0 | 4.0 | 0.00 | 0.00 | 0.00 | 87 | 1008.2 |
| 20260505063946 | 68 | 127 | 1.0 | 2.0 | 0.00 | 0.00 | 0.00 | 87 | 1008.4 |
| 20260505063442 | 68 | 123 | 2.0 | 3.0 | 0.00 | 0.00 | 0.00 | 87 | 1008.4 |
| 20260505062939 | 68 | 134 | 2.0 | 3.0 | 0.00 | 0.00 | 0.00 | 87 | 1008.5 |
| 20260505062436 | 68 | 129 | 1.0 | 3.0 | 0.00 | 0.00 | 0.00 | 87 | 1008.1 |
| 20260505061932 | 68 | 120 | 2.0 | 3.0 | 0.00 | 0.00 | 0.00 | 87 | 1008.4 |
| 20260505061431 | 68 | 131 | 1.0 | 2.0 | 0.00 | 0.00 | 0.00 | 86 | 1008.6 |
| 20260505060928 | 68 | 143 | 4.0 | 6.0 | 0.00 | 0.00 | 0.00 | 86 | 1008.7 |
| 20260505060425 | 68 | 139 | 3.0 | 4.0 | 0.00 | 0.00 | 0.00 | 86 | 1008.5 |
| 20260505055921 | 68 | 123 | 1.0 | 2.0 | 0.00 | 0.00 | 0.00 | 85 | 1008.5 |
| 20260505055417 | 68 | 120 | 1.0 | 2.0 | 0.00 | 0.00 | 0.00 | 85 | 1008.3 |
| 20260505054914 | 69 | 143 | 2.0 | 3.0 | 0.00 | 0.00 | 0.00 | 85 | 1008.3 |
| 20260505054412 | 69 | 172 | 2.0 | 6.0 | 0.00 | 0.00 | 0.00 | 85 | 1008.2 |
| 20260505053910 | 68 | 134 | 2.0 | 3.0 | 0.00 | 0.00 | 0.00 | 85 | 1008.1 |
| 20260505053406 | 68 | 132 | 4.0 | 6.0 | 0.00 | 0.00 | 0.00 | 85 | 1008.3 |
| 20260505052903 | 68 | 124 | 1.0 | 3.0 | 0.00 | 0.00 | 0.00 | 85 | 1008.2 |
| 20260505052400 | 68 | 141 | 1.0 | 4.0 | 0.00 | 0.00 | 0.00 | 85 | 1008.4 |
| 20260505051857 | 68 | 135 | 2.0 | 3.0 | 0.00 | 0.00 | 0.00 | 85 | 1008.3 |
| 20260505051354 | 68 | 145 | 3.0 | 4.0 | 0.00 | 0.00 | 0.00 | 85 | 1008.4 |
| 20260505050852 | 68 | 116 | 1.0 | 4.0 | 0.00 | 0.00 | 0.00 | 85 | 1008.5 |
| 20260505050351 | 69 | 117 | 0.0 | 3.0 | 0.00 | 0.00 | 0.00 | 84 | 1008.4 |
| 20260505041318 | 70 | 162 | 3.0 | 4.0 | 0.00 | 0.00 | 0.00 | 81 | 1008.5 |
| 20260505040815 | 70 | 111 | 1.0 | 3.0 | 0.00 | 0.00 | 0.00 | 81 | 1008.8 |
| 20260505040313 | 70 | 128 | 2.0 | 3.0 | 0.00 | 0.00 | 0.00 | 80 | 1008.6 |
| 20260505035809 | 70 | 128 | 1.0 | 4.0 | 0.00 | 0.00 | 0.00 | 80 | 1008.6 |
| 20260505035305 | 70 | 142 | 1.0 | 6.0 | 0.00 | 0.00 | 0.00 | 80 | 1008.5 |
| 20260505034802 | 70 | 169 | 5.0 | 7.0 | 0.00 | 0.00 | 0.00 | 80 | 1008.6 |
| 20260505034259 | 71 | 118 | 0.0 | 1.0 | 0.00 | 0.00 | 0.00 | 79 | 1008.6 |
| 20260505033755 | 71 | 153 | 2.0 | 2.0 | 0.00 | 0.00 | 0.00 | 78 | 1008.4 |
| 20260505033253 | 71 | 109 | 1.0 | 2.0 | 0.00 | 0.00 | 0.00 | 78 | 1008.4 |
| 20260505032751 | 71 | 108 | 1.0 | 7.0 | 0.00 | 0.00 | 0.00 | 78 | 1008.8 |
| 20260505032247 | 71 | 154 | 1.0 | 3.0 | 0.00 | 0.00 | 0.00 | 77 | 1008.6 |
| 20260505031744 | 71 | 127 | 1.0 | 2.0 | 0.00 | 0.00 | 0.00 | 77 | 1008.4 |
| 20260505031240 | 72 | 145 | 1.0 | 4.0 | 0.00 | 0.00 | 0.00 | 76 | 1008.5 |
| 20260505030738 | 72 | 125 | 2.0 | 4.0 | 0.00 | 0.00 | 0.00 | 76 | 1008.5 |
| 20260505030234 | 72 | 135 | 2.0 | 6.0 | 0.00 | 0.00 | 0.00 | 75 | 1008.2 |
| 20260505025729 | 72 | 120 | 1.0 | 4.0 | 0.00 | 0.00 | 0.00 | 75 | 1008.1 |
| 20260505025228 | 72 | 124 | 1.0 | 2.0 | 0.00 | 0.00 | 0.00 | 74 | 1008.3 |
| 20260505024726 | 72 | 123 | 1.0 | 4.0 | 0.00 | 0.00 | 0.00 | 74 | 1008.4 |
| 20260505024223 | 72 | 126 | 0.0 | 2.0 | 0.00 | 0.00 | 0.00 | 73 | 1008.4 |
| 20260505023720 | 73 | 120 | 3.0 | 4.0 | 0.00 | 0.00 | 0.00 | 73 | 1008.3 |
| 20260505023217 | 73 | 134 | 1.0 | 1.0 | 0.00 | 0.00 | 0.00 | 73 | 1008.2 |
| 20260505022715 | 73 | 107 | 1.0 | 4.0 | 0.00 | 0.00 | 0.00 | 72 | 1008.4 |
| 20260505022211 | 73 | 138 | 1.0 | 2.0 | 0.00 | 0.00 | 0.00 | 72 | 1008.2 |
| 20260505021708 | 73 | 104 | 3.0 | 4.0 | 0.00 | 0.00 | 0.00 | 71 | 1008.3 |
| 20260505021205 | 73 | 128 | 2.0 | 3.0 | 0.00 | 0.00 | 0.00 | 72 | 1008.2 |
| 20260505020701 | 73 | 146 | 1.0 | 6.0 | 0.00 | 0.00 | 0.00 | 72 | 1008.1 |
| 20260505020156 | 73 | 153 | 4.0 | 6.0 | 0.00 | 0.00 | 0.00 | 72 | 1008.1 |
| 20260505015654 | 73 | 143 | 1.0 | 4.0 | 0.00 | 0.00 | 0.00 | 72 | 1008.1 |
| 20260505015150 | 73 | 140 | 1.0 | 3.0 | 0.00 | 0.00 | 0.00 | 72 | 1008.0 |
| 20260505014647 | 73 | 131 | 2.0 | 3.0 | 0.00 | 0.00 | 0.00 | 73 | 1008.2 |
| 20260505014145 | 73 | 118 | 1.0 | 3.0 | 0.00 | 0.00 | 0.00 | 72 | 1007.9 |
| 20260505013642 | 73 | 138 | 1.0 | 6.0 | 0.00 | 0.00 | 0.00 | 71 | 1007.8 |
| 20260505013139 | 73 | 121 | 1.0 | 3.0 | 0.00 | 0.00 | 0.00 | 72 | 1008.0 |
| 20260505012637 | 73 | 145 | 1.0 | 2.0 | 0.00 | 0.00 | 0.00 | 71 | 1007.9 |
| 20260505012134 | 73 | 146 | 2.0 | 2.0 | 0.00 | 0.00 | 0.00 | 71 | 1007.8 |
| 20260505011630 | 74 | 126 | 2.0 | 3.0 | 0.00 | 0.00 | 0.00 | 70 | 1007.7 |
| 20260505011128 | 74 | 143 | 2.0 | 4.0 | 0.00 | 0.00 | 0.00 | 70 | 1007.8 |
| 20260505010627 | 74 | 137 | 0.0 | 2.0 | 0.00 | 0.00 | 0.00 | 70 | 1007.7 |
| 20260505010124 | 74 | 109 | 0.0 | 2.0 | 0.00 | 0.00 | 0.00 | 70 | 1007.8 |
| 20260505005620 | 74 | 138 | 2.0 | 3.0 | 0.00 | 0.00 | 0.00 | 70 | 1007.7 |
| 20260505005118 | 75 | 112 | 2.0 | 4.0 | 0.00 | 0.00 | 0.00 | 69 | 1007.8 |
| 20260505004615 | 75 | 136 | 2.0 | 4.0 | 0.00 | 0.00 | 0.00 | 69 | 1007.8 |
| 20260505004112 | 75 | 155 | 2.0 | 4.0 | 0.00 | 0.00 | 0.00 | 68 | 1007.7 |
| 20260505003609 | 76 | 129 | 2.0 | 3.0 | 0.00 | 0.00 | 0.00 | 67 | 1007.9 |
| 20260505003106 | 76 | 187 | 2.0 | 4.0 | 0.00 | 0.00 | 0.00 | 66 | 1007.6 |
| 20260505002601 | 76 | 147 | 3.0 | 7.0 | 0.00 | 0.00 | 0.00 | 65 | 1008.1 |
| 20260505002100 | 77 | 136 | 2.0 | 3.0 | 0.00 | 0.00 | 0.00 | 65 | 1007.9 |
| 20260505001557 | 77 | 122 | 1.0 | 6.0 | 0.00 | 0.00 | 0.00 | 64 | 1008.0 |
| 20260505001054 | 77 | 114 | 2.0 | 3.0 | 0.00 | 0.00 | 0.00 | 64 | 1008.0 |
| 20260505000552 | 77 | 130 | 1.0 | 4.0 | 0.00 | 0.00 | 0.00 | 64 | 1008.2 |
| 20260505000049 | 77 | 141 | 2.0 | 3.0 | 0.00 | 0.00 | 0.00 | 63 | 1008.3 |
| 20260504235546 | 78 | 157 | 4.0 | 6.0 | 0.00 | 0.00 | 0.00 | 62 | 1008.4 |
| 20260504235043 | 77 | 119 | 2.0 | 6.0 | 0.00 | 0.00 | 0.00 | 62 | 1008.4 |
| 20260504234539 | 78 | 134 | 2.0 | 2.0 | 0.00 | 0.00 | 0.00 | 62 | 1008.1 |
| 20260504234036 | 78 | 120 | 3.0 | 8.0 | 0.00 | 0.00 | 0.00 | 61 | 1008.4 |
| 20260504233532 | 77 | 114 | 1.0 | 4.0 | 0.00 | 0.00 | 0.00 | 62 | 1008.5 |
| 20260504233029 | 78 | 120 | 2.0 | 6.0 | 0.00 | 0.00 | 0.00 | 63 | 1008.5 |
| 20260504232526 | 78 | 117 | 1.0 | 3.0 | 0.00 | 0.00 | 0.00 | 62 | 1008.3 |
| 20260504232024 | 78 | 134 | 3.0 | 4.0 | 0.00 | 0.00 | 0.00 | 61 | 1008.5 |
| 20260504231520 | 78 | 133 | 2.0 | 6.0 | 0.00 | 0.00 | 0.00 | 60 | 1008.4 |
| 20260504231016 | 78 | 108 | 5.0 | 9.0 | 0.00 | 0.00 | 0.00 | 60 | 1008.4 |
| 20260504230513 | 78 | 157 | 4.0 | 6.0 | 0.00 | 0.00 | 0.00 | 58 | 1008.8 |
| 20260504230012 | 79 | 134 | 1.0 | 7.0 | 0.00 | 0.00 | 0.00 | 58 | 1008.6 |
| 20260504225508 | 79 | 127 | 5.0 | 7.0 | 0.00 | 0.00 | 0.00 | 57 | 1008.6 |
| 20260504225005 | 79 | 120 | 1.0 | 8.0 | 0.00 | 0.00 | 0.00 | 58 | 1008.9 |
| 20260504224501 | 79 | 168 | 3.0 | 8.0 | 0.00 | 0.00 | 0.00 | 57 | 1008.9 |
| 20260504223959 | 79 | 180 | 6.0 | 10.0 | 0.00 | 0.00 | 0.00 | 56 | 1008.9 |
| 20260504223455 | 79 | 153 | 3.0 | 8.0 | 0.00 | 0.00 | 0.00 | 56 | 1008.7 |
| 20260504222951 | 79 | 146 | 4.0 | 7.0 | 0.00 | 0.00 | 0.00 | 55 | 1008.7 |
| 20260504222449 | 79 | 130 | 2.0 | 7.0 | 0.00 | 0.00 | 0.00 | 55 | 1008.6 |
| 20260504221946 | 80 | 123 | 3.0 | 9.0 | 0.00 | 0.00 | 0.00 | 55 | 1008.9 |
| 20260504221443 | 80 | 175 | 6.0 | 11.0 | 0.00 | 0.00 | 0.00 | 54 | 1009.0 |
| 20260504220940 | 80 | 181 | 2.0 | 6.0 | 0.00 | 0.00 | 0.00 | 55 | 1008.9 |
| 20260504220436 | 80 | 113 | 3.0 | 10.0 | 0.00 | 0.00 | 0.00 | 54 | 1009.0 |
| 20260504215933 | 80 | 110 | 3.0 | 9.0 | 0.00 | 0.00 | 0.00 | 54 | 1009.1 |
| 20260504215430 | 80 | 151 | 5.0 | 7.0 | 0.00 | 0.00 | 0.00 | 54 | 1009.3 |
| 20260504214927 | 80 | 111 | 4.0 | 6.0 | 0.00 | 0.00 | 0.00 | 54 | 1009.2 |
| 20260504214423 | 80 | 116 | 2.0 | 7.0 | 0.00 | 0.00 | 0.00 | 54 | 1009.3 |
| 20260504213920 | 80 | 128 | 2.0 | 4.0 | 0.00 | 0.00 | 0.00 | 55 | 1009.5 |
| 20260504213416 | 80 | 132 | 1.0 | 6.0 | 0.00 | 0.00 | 0.00 | 53 | 1009.4 |
| 20260504212914 | 81 | 130 | 3.0 | 11.0 | 0.00 | 0.00 | 0.00 | 51 | 1009.6 |
| 20260504212409 | 81 | 93 | 0.0 | 6.0 | 0.00 | 0.00 | 0.00 | 53 | 1009.5 |
| 20260504211907 | 81 | 121 | 7.0 | 8.0 | 0.00 | 0.00 | 0.00 | 53 | 1009.6 |
| 20260504211403 | 81 | 160 | 4.0 | 8.0 | 0.00 | 0.00 | 0.00 | 52 | 1009.8 |
| 20260504210900 | 81 | 39 | 2.0 | 7.0 | 0.00 | 0.00 | 0.00 | 54 | 1009.8 |
| 20260504210357 | 80 | 137 | 2.0 | 3.0 | 0.00 | 0.00 | 0.00 | 52 | 1009.9 |
| 20260504205854 | 80 | 128 | 1.0 | 7.0 | 0.00 | 0.00 | 0.00 | 52 | 1010.2 |
| 20260504205352 | 81 | 149 | 4.0 | 4.0 | 0.00 | 0.00 | 0.00 | 54 | 1010.5 |
| 20260504204850 | 80 | 125 | 3.0 | 4.0 | 0.00 | 0.00 | 0.00 | 53 | 1010.4 |
| 20260504204348 | 81 | 127 | 4.0 | 10.0 | 0.00 | 0.00 | 0.00 | 51 | 1010.4 |
| 20260504203848 | 80 | 121 | 2.0 | 7.0 | 0.00 | 0.00 | 0.00 | 53 | 1010.4 |
| 20260504203344 | 81 | 127 | 1.0 | 7.0 | 0.00 | 0.00 | 0.00 | 51 | 1010.5 |
| 20260504202840 | 80 | 136 | 3.0 | 7.0 | 0.00 | 0.00 | 0.00 | 53 | 1010.6 |
| 20260504202337 | 81 | 104 | 2.0 | 9.0 | 0.00 | 0.00 | 0.00 | 52 | 1010.8 |
| 20260504201833 | 80 | 121 | 1.0 | 7.0 | 0.00 | 0.00 | 0.00 | 53 | 1010.9 |
| 20260504201331 | 80 | 118 | 1.0 | 9.0 | 0.00 | 0.00 | 0.00 | 52 | 1010.8 |
| 20260504200828 | 80 | 138 | 2.0 | 4.0 | 0.00 | 0.00 | 0.00 | 52 | 1011.0 |
| 20260504200325 | 80 | 149 | 3.0 | 7.0 | 0.00 | 0.00 | 0.00 | 50 | 1011.2 |
| 20260504195821 | 80 | 187 | 4.0 | 7.0 | 0.00 | 0.00 | 0.00 | 52 | 1011.3 |
| 20260504195317 | 81 | 131 | 2.0 | 8.0 | 0.00 | 0.00 | 0.00 | 49 | 1011.5 |
| 20260504194814 | 81 | 146 | 2.0 | 11.0 | 0.00 | 0.00 | 0.00 | 51 | 1011.5 |
| 20260504194310 | 81 | 126 | 4.0 | 6.0 | 0.00 | 0.00 | 0.00 | 49 | 1011.6 |
| 20260504193806 | 81 | 130 | 3.0 | 7.0 | 0.00 | 0.00 | 0.00 | 50 | 1011.6 |
| 20260504193304 | 81 | 135 | 2.0 | 3.0 | 0.00 | 0.00 | 0.00 | 49 | 1011.8 |
| 20260504192802 | 81 | 148 | 2.0 | 4.0 | 0.00 | 0.00 | 0.00 | 51 | 1011.7 |
| 20260504192300 | 81 | 152 | 1.0 | 4.0 | 0.00 | 0.00 | 0.00 | 48 | 1011.8 |
| 20260504191758 | 81 | 116 | 2.0 | 8.0 | 0.00 | 0.00 | 0.00 | 52 | 1012.0 |
| 20260504191255 | 80 | 71 | 1.0 | 6.0 | 0.00 | 0.00 | 0.00 | 52 | 1011.8 |
| 20260504190750 | 79 | 175 | 6.0 | 9.0 | 0.00 | 0.00 | 0.00 | 52 | 1012.0 |
| 20260504190247 | 80 | 101 | 4.0 | 10.0 | 0.00 | 0.00 | 0.00 | 51 | 1012.2 |
| 20260504185743 | 80 | 155 | 3.0 | 15.0 | 0.00 | 0.00 | 0.00 | 51 | 1012.2 |
| 20260504185240 | 79 | 136 | 2.0 | 8.0 | 0.00 | 0.00 | 0.00 | 53 | 1012.3 |
| 20260504184737 | 79 | 106 | 4.0 | 6.0 | 0.00 | 0.00 | 0.00 | 51 | 1012.3 |
| 20260504184232 | 79 | 178 | 4.0 | 11.0 | 0.00 | 0.00 | 0.00 | 49 | 1012.4 |
| 20260504183728 | 80 | 157 | 7.0 | 10.0 | 0.00 | 0.00 | 0.00 | 49 | 1012.2 |
| 20260504183226 | 80 | 164 | 5.0 | 11.0 | 0.00 | 0.00 | 0.00 | 49 | 1012.4 |
| 20260504182724 | 79 | 106 | 1.0 | 6.0 | 0.00 | 0.00 | 0.00 | 52 | 1012.6 |
| 20260504182221 | 79 | 114 | 1.0 | 7.0 | 0.00 | 0.00 | 0.00 | 50 | 1012.8 |
| 20260504181718 | 78 | 105 | 1.0 | 10.0 | 0.00 | 0.00 | 0.00 | 50 | 1012.7 |
| 20260504181215 | 79 | 99 | 5.0 | 7.0 | 0.00 | 0.00 | 0.00 | 52 | 1012.8 |
| 20260504180714 | 78 | 122 | 1.0 | 9.0 | 0.00 | 0.00 | 0.00 | 51 | 1012.9 |
| 20260504180213 | 78 | 148 | 5.0 | 8.0 | 0.00 | 0.00 | 0.00 | 48 | 1013.0 |
| 20260504175709 | 78 | 205 | 2.0 | 4.0 | 0.00 | 0.00 | 0.00 | 50 | 1012.9 |
| 20260504175206 | 78 | 122 | 4.0 | 11.0 | 0.00 | 0.00 | 0.00 | 46 | 1013.1 |
| 20260504174704 | 79 | 126 | 2.0 | 8.0 | 0.00 | 0.00 | 0.00 | 48 | 1013.1 |
| 20260504174202 | 78 | 139 | 4.0 | 4.0 | 0.00 | 0.00 | 0.00 | 47 | 1013.3 |
| 20260504173658 | 78 | 115 | 3.0 | 6.0 | 0.00 | 0.00 | 0.00 | 47 | 1013.2 |
| 20260504173155 | 77 | 334 | 2.0 | 8.0 | 0.00 | 0.00 | 0.00 | 50 | 1013.3 |
| 20260504172652 | 77 | 133 | 3.0 | 6.0 | 0.00 | 0.00 | 0.00 | 49 | 1013.6 |
| 20260504172148 | 77 | 121 | 5.0 | 7.0 | 0.00 | 0.00 | 0.00 | 47 | 1013.8 |
| 20260504171644 | 78 | 124 | 2.0 | 13.0 | 0.00 | 0.00 | 0.00 | 47 | 1013.7 |
| 20260504171142 | 77 | 164 | 2.0 | 7.0 | 0.00 | 0.00 | 0.00 | 49 | 1013.7 |
| 20260504170638 | 77 | 194 | 4.0 | 6.0 | 0.00 | 0.00 | 0.00 | 47 | 1013.9 |
| 20260504170136 | 77 | 166 | 3.0 | 10.0 | 0.00 | 0.00 | 0.00 | 48 | 1013.9 |
| 20260504151027 | 71 | 157 | 3.0 | 9.0 | 0.00 | 0.00 | 0.00 | 60 | 1014.7 |
| 20260504150525 | 71 | 123 | 2.0 | 10.0 | 0.00 | 0.00 | 0.00 | 59 | 1014.8 |
| 20260504140950 | 68 | 131 | 2.0 | 3.0 | 0.00 | 0.00 | 0.00 | 69 | 1014.8 |
| 20260504140447 | 67 | 119 | 0.0 | 3.0 | 0.00 | 0.00 | 0.00 | 70 | 1014.9 |
| 20260504130411 | 59 | 136 | 0.0 | 2.0 | 0.00 | 0.00 | 0.00 | 84 | 1014.7 |
| 20260504110259 | 53 | 136 | 0.0 | 1.0 | 0.00 | 0.00 | 0.00 | 93 | 1014.2 |